Location: Champs
(48.8539°N, 2.6040°E)
Time: 16:48:50
(UTC+00:00)

Cosmos 1538 Rocket - Pass Details

Date: 02 June 2022
Orbit: 752 x 791 km, 74.0° (Epoch: 02 July)

Event Time Altitude Azimuth Distance (km) Brightness Sun altitude
Rises 22:08:44 0° 318° (NW) 3,236 8.7 -15.5°
Reaches altitude 10° 22:13:30 10° 279° (W) 2,292 6.9 -15.8°
Maximum altitude 22:14:18 10° 270° (W) 2,265 6.7 -15.9°
Drops below altitude 10° 22:15:06 10° 260° (W) 2,286 6.6 -15.9°
Enters shadow 22:19:43 - 222° (SW) 3,161 6.9 -16.2°
